EA5ILC Weather Reports


time (UTC)temp
C
wind
direction
speed
KPH
gust
KPH
rain 1hr
cm
rain 24hr
cm
rain mn
cm
humidity
%
barometer
mb
20260508080535 -17 0.0 0.0 0.00 3.05 0.00 1015.7
20260508075532 -17 0.0 0.0 0.00 3.05 0.00 1015.5
20260508074529 -17 0.0 0.0 0.00 3.05 0.00 1015.3
20260508073546 -17 0.0 0.0 0.00 3.05 0.00 1015.5
20260508072544 -17 0.0 0.0 0.00 3.05 0.00 1015.4
20260508071521 -17 0.0 0.0 0.00 3.05 0.00 1015.1
20260508070519 -17 0.0 0.0 0.00 3.05 0.00 1015.0
20260508065517 15 0.0 0.0 0.00 3.05 0.00 76 1015.1
20260508064614 14 0.0 0.0 0.00 3.05 0.00 76 1015.0
20260508063611 14 68 0.0 3.2 0.00 3.05 0.00 77 1014.7
20260508062609 13 0.0 0.0 0.00 3.05 0.00 79 1014.7
20260508061606 13 0.0 0.0 0.00 3.05 0.00 78 1014.8
20260508060603 13 0.0 0.0 0.00 3.05 0.00 79 1014.8
20260508055601 -17 0.0 0.0 0.00 3.05 0.00 1014.7
20260508054558 -17 0.0 0.0 0.00 3.05 0.00 1014.6
20260508053555 -17 0.0 0.0 0.00 3.05 0.00 1014.5
20260508052613 -17 0.0 0.0 0.00 3.05 0.00 1014.3
20260508051610 11 0.0 0.0 0.00 3.05 0.00 86 1014.2
20260508050548 -17 0.0 0.0 0.00 3.05 0.00 1014.1
20260508045545 -17 0.0 0.0 0.00 3.05 0.00 1014.2
20260508044543 -17 0.0 0.0 0.00 3.05 0.00 1014.2
20260508043540 13 0.0 0.0 0.00 3.05 0.00 75 1013.8
20260508042537 13 0.0 0.0 0.00 3.05 0.00 78 1013.5
20260508041535 12 0.0 3.2 0.00 3.05 0.00 81 1013.4
20260508040532 12 0.0 0.0 0.00 3.05 0.00 82 1013.4
20260508035529 12 0.0 0.0 0.00 3.05 0.00 84 1013.4
20260508034527 12 0.0 3.2 0.00 3.05 0.00 83 1013.5
20260508033524 13 90 0.0 3.2 0.00 3.05 0.00 81 1013.7
20260508032602 12 113 0.0 3.2 0.00 3.05 0.00 82 1013.9
20260508031519 12 117 1.6 3.2 0.00 3.05 0.00 84 1013.9
20260508030536 12 129 1.6 3.2 0.00 3.05 0.00 85 1013.8
20260508025614 12 122 1.6 3.2 0.00 3.05 0.00 86 1013.8
20260508024631 12 0.0 0.0 0.00 3.05 0.00 87 1013.8
20260508023608 12 0.0 0.0 0.00 3.05 0.00 86 1013.8
20260508022626 12 0.0 0.0 0.00 3.05 0.00 86 1013.9
20260508021603 12 0.0 0.0 0.00 3.05 0.00 85 1013.9
20260508020620 12 0.0 0.0 0.00 3.05 0.00 85 1013.9
20260508015618 12 23 0.0 3.2 0.00 3.05 0.00 87 1014.2
20260508014556 12 23 0.0 3.2 0.00 3.05 0.00 88 1014.1
20260508013553 12 23 0.0 3.2 0.00 3.05 0.00 88 1014.5
20260508012550 12 0.0 0.0 0.00 3.05 0.00 89 1014.7
20260508011607 12 0.0 3.2 0.00 3.05 0.00 91 1014.8
20260508010545 12 17 1.6 6.4 0.00 3.05 0.00 94 1014.9
20260508005542 11 21 1.6 6.4 0.00 3.05 0.00 96 1015.1
20260508004539 11 23 1.6 6.4 0.00 3.05 0.00 97 1015.3
20260508003557 11 23 1.6 6.4 0.00 3.05 0.00 98 1015.3
20260508002534 11 19 3.2 6.4 0.00 3.05 0.00 98 1015.4
20260508001531 11 18 3.2 6.4 0.00 3.05 0.00 98 1015.6
20260508000529 11 19 3.2 6.4 0.00 3.05 0.00 98 1015.6
20260507235526 11 0.0 0.0 0.00 3.05 0.00 98 1015.7
20260507234524 11 0.0 0.0 0.00 3.05 0.00 98 1015.7
20260507233521 11 0.0 0.0 0.00 3.05 0.00 98 1015.7
20260507232519 11 270 1.6 3.2 0.00 3.05 0.00 98 1015.8
20260507231516 11 0.0 0.0 0.00 3.05 0.00 98 1015.8
20260507230614 11 0.0 0.0 0.00 3.05 0.00 98 1015.8
20260507225631 11 0.0 0.0 0.00 3.05 0.00 98 1015.6
20260507224608 11 43 0.0 3.2 0.00 3.05 0.00 98 1015.7
20260507223606 12 0.0 0.0 0.00 3.05 0.00 98 1015.4
20260507222603 12 0.0 0.0 0.00 3.05 0.00 98 1015.2
20260507221601 12 0.0 0.0 0.00 3.05 0.00 98 1015.4
20260507220558 12 0.0 0.0 0.00 3.05 0.00 98 1015.3
20260507215555 12 0.0 0.0 0.00 3.05 3.05 99 1015.4
20260507214553 12 0.0 0.0 0.00 3.05 3.05 99 1015.5
20260507213610 12 0.0 0.0 0.00 3.05 3.05 99 1015.5
20260507212547 12 0.0 0.0 0.00 3.05 3.05 99 1015.5
20260507211605 12 0.0 0.0 0.00 3.05 3.05 98 1015.4
20260507210542 13 0.0 0.0 0.00 3.05 3.05 98 1015.3
20260507205540 13 0.0 0.0 0.00 3.05 3.05 98 1015.3
20260507204537 13 0 0.0 3.2 0.00 3.05 3.05 98 1015.3
20260507203534 13 0.0 3.2 0.00 3.05 3.05 98 1015.3
20260507202532 13 9 1.6 6.4 0.03 3.05 3.05 98 1015.3
20260507201529 13 14 1.6 6.4 0.03 3.05 3.05 98 1015.1
20260507200527 13 0.0 0.0 0.03 3.05 3.05 98 1015.0
20260507195524 13 0.0 3.2 0.03 3.05 3.05 98 1014.9
20260507194521 13 0.0 3.2 0.05 3.05 3.05 98 1014.8
20260507193519 13 90 0.0 3.2 0.10 3.05 3.05 98 1014.7
20260507192516 -17 0.0 0.0 0.05 3.02 3.02 1014.6
20260507191614 13 0.0 0.0 0.10 3.02 3.02 98 1014.5
20260507190611 13 0.0 0.0 0.15 3.02 3.02 98 1014.4
20260507185648 13 0.0 0.0 0.23 3.02 3.02 97 1014.3
20260507184606 13 0.0 0.0 0.36 3.00 3.00 97 1014.2
20260507183603 13 135 0.0 3.2 0.38 2.97 2.97 97 1014.3
20260507182600 13 135 0.0 3.2 0.48 2.97 2.97 97 1014.2
20260507181558 13 138 1.6 3.2 0.51 2.95 2.95 97 1014.2
20260507180615 13 225 0.0 3.2 0.56 2.87 2.87 97 1014.2
20260507175552 13 167 1.6 3.2 0.99 2.79 2.79 96 1014.0
20260507174550 13 168 3.2 6.4 1.78 2.64 2.64 96 1014.1
20260507173547 13 177 3.2 6.4 2.51 2.59 2.59 96 1013.7
20260507172545 13 9 1.6 6.4 2.49 2.49 2.49 95 1013.3
20260507171542 13 16 4.8 6.4 2.44 2.44 2.44 95 1013.2
20260507170539 12 347 6.4 12.9 2.31 2.31 2.31 95 1013.1
20260507165537 12 21 8.0 17.7 1.80 1.80 1.80 93 1013.2
20260507164534 13 67 1.6 3.2 0.86 0.86 0.86 90 1013.2
20260507163612 14 2 6.4 12.9 0.05 0.05 0.05 84 1013.0
20260507162529 15 352 8.0 17.7 0.00 0.00 0.00 80 1013.0
20260507161527 15 332 11.3 24.1 0.00 0.00 0.00 81 1013.0
20260507160523 15 349 4.8 9.7 0.00 0.00 0.00 78 1013.0
20260507155521 15 4 4.8 11.3 0.00 0.00 0.00 75 1012.9
20260507154518 16 354 9.7 20.9 0.00 0.00 0.00 72 1012.7
20260507153556 17 359 6.4 17.7 0.00 0.00 0.00 72 1012.7
20260507152633 18 326 3.2 6.4 0.00 0.00 0.00 75 1012.2
20260507151611 18 350 3.2 9.7 0.00 0.00 0.00 76 1012.3
20260507150608 18 245 4.8 11.3 0.00 0.00 0.00 78 1012.2
20260507145606 18 304 3.2 11.3 0.00 0.00 0.00 78 1012.2
20260507144603 17 289 3.2 12.9 0.00 0.00 0.00 78 1012.2
20260507143600 18 347 4.8 9.7 0.00 0.00 0.00 76 1012.2
20260507142618 18 296 3.2 6.4 0.00 0.00 0.00 76 1012.2
20260507141555 18 335 4.8 11.3 0.00 0.00 0.00 75 1012.1
20260507140553 18 319 6.4 12.9 0.00 0.00 0.00 74 1012.1
20260507135550 18 330 4.8 11.3 0.00 0.00 0.00 73 1012.2
20260507134547 19 264 4.8 11.3 0.00 0.00 0.00 70 1012.3
20260507133545 20 335 4.8 17.7 0.00 0.00 0.00 68 1012.3
20260507132542 21 32 6.4 17.7 0.00 0.00 0.00 66 1012.5
20260507131559 21 28 8.0 14.5 0.00 0.00 0.00 62 1012.4
20260507130537 21 25 8.0 20.9 0.00 0.00 0.00 61 1012.6
20260507125534 21 333 8.0 22.5 0.00 0.00 0.00 60 1012.7
20260507124532 21 334 6.4 17.7 0.00 0.00 0.00 62 1012.8
20260507123529 20 325 6.4 17.7 0.00 0.00 0.00 66 1013.0
20260507122526 20 250 6.4 14.5 0.00 0.00 0.00 66 1013.1
20260507121524 21 295 4.8 17.7 0.00 0.00 0.00 64 1012.9
20260507120521 21 288 4.8 12.9 0.00 0.00 0.00 64 1013.1
20260507115518 21 293 4.8 12.9 0.00 0.00 0.00 65 1013.2
20260507113613 20 333 4.8 11.3 0.00 0.00 0.00 64 1013.5
20260507112631 21 332 4.8 9.7 0.00 0.00 0.00 63 1013.6
20260507111608 21 320 3.2 11.3 0.00 0.00 0.00 64 1013.8
20260507110626 20 0 6.4 17.7 0.00 0.00 0.00 62 1013.8
20260507105623 20 300 4.8 12.9 0.00 0.00 0.00 63 1013.9
20260507104601 20 15 3.2 11.3 0.00 0.00 0.00 59 1014.0
20260507103558 20 348 4.8 11.3 0.00 0.00 0.00 59 1014.0
20260507102555 20 2 4.8 14.5 0.00 0.00 0.00 58 1014.0
20260507101553 20 341 3.2 11.3 0.00 0.00 0.00 58 1014.0
20260507100550 20 26 3.2 12.9 0.00 0.00 0.00 62 1014.1
20260507095548 19 10 4.8 17.7 0.00 0.00 0.00 64 1014.1
20260507094545 19 21 3.2 6.4 0.00 0.00 0.00 64 1014.2
20260507093542 19 318 4.8 9.7 0.00 0.00 0.00 64 1014.3
20260507092540 19 349 3.2 20.9 0.00 0.00 0.00 65 1014.3
20260507091537 19 4 3.2 9.7 0.00 0.00 0.00 63 1014.3
20260507090614 19 339 3.2 11.3 0.00 0.00 0.00 62 1014.3
20260507085532 18 347 4.8 12.9 0.00 0.00 0.00 65 1014.2
20260507084529 18 317 3.2 6.4 0.00 0.00 0.00 64 1014.3
20260507083526 18 345 4.8 11.3 0.00 0.00 0.00 62 1014.2
20260507082524 19 354 3.2 9.7 0.00 0.00 0.00 61 1014.2
20260507081521 20 19 3.2 6.4 0.00 0.00 0.00 59 1014.2